This is the latest recevied weather packets stored in our database for station/object W8LMG. If no packets are shown the sender has not sent any weather packets the latest 10 day(s).
| Time | Temp. | Humidity | Pressure | Rain* | Wind** | Luminosity | Snow |
|---|---|---|---|---|---|---|---|
| 1777490617 | 16.11° C | 99% | 1009 hPa | 0 mm | - | 277 W/m² | - |
| 1777490313 | 16.11° C | 99% | 1009.1 hPa | 0 mm | - | 103 W/m² | - |
| 1777490011 | 16.11° C | 99% | 1009.3 hPa | 0 mm | - | 244 W/m² | - |
| 1777489709 | 16.11° C | 99% | 1009.2 hPa | 1.27 mm | - | 193 W/m² | - |
| 1777489405 | 15.56° C | 99% | 1009.5 hPa | 1.27 mm | - | 202 W/m² | - |
| 1777489102 | 15.56° C | 99% | 1009.5 hPa | 0 mm | - | 108 W/m² | - |
| 1777488799 | 15.56° C | 99% | 1009.6 hPa | 0 mm | - | 123 W/m² | - |
| 1777488497 | 15.56° C | 99% | 1009.7 hPa | 0 mm | - | 60 W/m² | - |
| 1777488195 | 15.56° C | 99% | 1009.9 hPa | 0 mm | - | 88 W/m² | - |
| 1777487892 | 15.56° C | 99% | 1009.9 hPa | 0 mm | - | 91 W/m² | - |
| 1777487590 | 15.56° C | 99% | 1009.9 hPa | 3.05 mm | - | 173 W/m² | - |
| 1777487287 | 15° C | 99% | 1010.1 hPa | 4.83 mm | - | 302 W/m² | - |
| 1777486984 | 15° C | 99% | 1010.2 hPa | 4.32 mm | - | 86 W/m² | - |
| 1777486680 | 15° C | 99% | 1010 hPa | 3.05 mm | - | 67 W/m² | - |
| 1777486378 | 15° C | 99% | 1010 hPa | 1.78 mm | - | 63 W/m² | - |
| 1777486075 | 15° C | 99% | 1010.2 hPa | 1.78 mm | - | 79 W/m² | - |
| 1777485771 | 15° C | 99% | 1010.1 hPa | 4.83 mm | - | 116 W/m² | - |
| 1777485467 | 15° C | 99% | 1010.1 hPa | 8.89 mm | - | 74 W/m² | - |
| 1777485163 | 15° C | 99% | 1010.4 hPa | 7.87 mm | - | 80 W/m² | - |
| 1777484860 | 15° C | 99% | 1010.2 hPa | 1.78 mm | - | 93 W/m² | - |
| 1777484557 | 15° C | 99% | 1010.6 hPa | 0 mm | - | 85 W/m² | - |
| 1777484254 | 15° C | 98% | 1010.6 hPa | 0 mm | - | 55 W/m² | - |
| 1777483950 | 15° C | 99% | 1010.5 hPa | 0 mm | - | 52 W/m² | - |
| 1777483647 | 15.56° C | 99% | 1010.5 hPa | 0 mm | - | 89 W/m² | - |
| 1777483342 | 15° C | 99% | 1010.7 hPa | 0 mm | - | 91 W/m² | - |
* Rain latest hour (hover to see other rain measurements)
** Current wind speed in m/s (hover to see current wind gust speed)